Find Starlink 30567

NORAD ID: 58067 Int'l Des: 2023-158 Owner: SPXS Country: US Constellation: starlink operational
LEOCIRCULAR

リアルタイム位置

3D地球を読み込み中...

Starlink 30567について

説明を読み込み中...

次回通過

Passes for default location (London). Set your location on the main map for personalized predictions.

高度履歴

Loading altitude history...

軌道要素

1 58067U 23158S 26132.42343998 -.00000573 00000-0 -11315-4 0 9993
2 58067 43.0098 27.4025 0000542 269.7283 90.3507 15.27575511143315
Epoch: May 12, 2026 • Age: 31 hours

現在のステータス

高度 495.9 km
速度 7.62 km/s
衛星直下点 -42.89°S, 168.83°E
打ち上げ日 Oct 13, 2023
運用期間 2.5 years
タイプ internet

技術仕様

分類 Payload
質量 730.00 kg
乾燥質量 700.00 kg
総質量 730.00 kg
長さ 0.30 m
直径 4.10 m
スパン 29.00 m
形状 Box + pan
製造者 SPXS
バスタイプ Starlink V2M
フェーズステータス In Orbit
所有者/国 SPXS/US

Most Searched